• In Schweiz
  • Länderverzeichnis
  • Für 7 Tage
  • Wassertemperatur
  • Satellitenkarten
  • Wetterkarte
  • Widgets
  • user-avatar
    Anmelden

    Stündliche Wetter Steinkjer

    Heute, 22 Mai, Dienstag

    Zeit Temperatur Niederschläge Wind Luftdruck Luftfeuchtigkeit
    00:00 +13°C° 0 mm 1 m/S 758 mmHg 75%
    01:00 +12°C° 0 mm 1 m/S 758 mmHg 77%
    02:00 +12°C° 0 mm 1 m/S 758 mmHg 76%
    03:00 +12°C° 0 mm 1 m/S 758 mmHg 76%
    04:00 +12°C° 0 mm 1 m/S 758 mmHg 75%
    05:00 +13°C° 0 mm 1 m/S 758 mmHg 68%
    06:00 +14°C° 0 mm 2 m/S 758 mmHg 62%
    07:00 +16°C° 0 mm 2 m/S 758 mmHg 55%
    08:00 +16°C° 0 mm 3 m/S 759 mmHg 55%
    09:00 +16°C° 0 mm 3 m/S 759 mmHg 54%
    10:00 +17°C° 0 mm 4 m/S 759 mmHg 54%
    11:00 +17°C° 0 mm 4 m/S 759 mmHg 56%
    12:00 +16°C° 0 mm 5 m/S 759 mmHg 57%
    13:00 +16°C° 0 mm 5 m/S 759 mmHg 59%
    14:00 +15°C° 0 mm 5 m/S 760 mmHg 62%
    15:00 +14°C° 0 mm 5 m/S 760 mmHg 66%
    16:00 +13°C° 0 mm 5 m/S 760 mmHg 69%
    17:00 +12°C° 0 mm 5 m/S 760 mmHg 69%
    18:00 +10°C° 0 mm 5 m/S 761 mmHg 68%
    19:00 +11°C° 0 mm 4 m/S 761 mmHg 68%
    20:00 +10°C° 0 mm 4 m/S 761 mmHg 70%
    21:00 +9°C° 0 mm 3 m/S 762 mmHg 72%
    22:00 +8°C° 0 mm 2 m/S 762 mmHg 74%
    23:00 +7°C° 0 mm 2 m/S 762 mmHg 76%

    Morgen, 23 Mai, Mittwoch

    Zeit Temperatur Niederschläge Wind Luftdruck Luftfeuchtigkeit
    00:00 +6°C° 0 mm 2 m/S 762 mmHg 79%
    01:00 +6°C° 0 mm 2 m/S 763 mmHg 82%
    02:00 +5°C° 0 mm 2 m/S 763 mmHg 83%
    03:00 +6°C° 0 mm 1 m/S 763 mmHg 84%
    04:00 +6°C° 0 mm 1 m/S 763 mmHg 85%
    05:00 +7°C° 0 mm 1 m/S 763 mmHg 76%
    06:00 +7°C° 0 mm 2 m/S 763 mmHg 68%
    07:00 +8°C° 0 mm 2 m/S 763 mmHg 60%
    08:00 +10°C° 0 mm 2 m/S 764 mmHg 53%
    09:00 +12°C° 0 mm 2 m/S 764 mmHg 46%
    10:00 +13°C° 0 mm 2 m/S 764 mmHg 39%
    11:00 +14°C° 0 mm 2 m/S 764 mmHg 37%
    12:00 +14°C° 0 mm 3 m/S 764 mmHg 34%
    13:00 +16°C° 0 mm 3 m/S 764 mmHg 32%
    14:00 +16°C° 0 mm 3 m/S 764 mmHg 32%
    15:00 +16°C° 0 mm 3 m/S 764 mmHg 32%
    16:00 +17°C° 0 mm 3 m/S 764 mmHg 33%
    17:00 +16°C° 0 mm 3 m/S 764 mmHg 35%
    18:00 +16°C° 0 mm 3 m/S 764 mmHg 37%
    19:00 +14°C° 0 mm 3 m/S 764 mmHg 40%
    20:00 +13°C° 0 mm 3 m/S 764 mmHg 46%
    21:00 +12°C° 0 mm 2 m/S 764 mmHg 52%
    22:00 +10°C° 0 mm 2 m/S 765 mmHg 59%
    23:00 +9°C° 0 mm 2 m/S 764 mmHg 58%

    übermorgen, 24 Mai, Donnerstag

    Zeit Temperatur Niederschläge Wind Luftdruck Luftfeuchtigkeit
    00:00 +9°C° 0 mm 2 m/S 764 mmHg 58%
    01:00 +9°C° 0 mm 2 m/S 764 mmHg 57%
    02:00 +9°C° 0 mm 2 m/S 764 mmHg 56%
    03:00 +9°C° 0 mm 2 m/S 764 mmHg 54%
    04:00 +10°C° 0 mm 2 m/S 764 mmHg 53%
    05:00 +13°C° 0 mm 1 m/S 764 mmHg 48%
    06:00 +14°C° 0 mm 1 m/S 763 mmHg 42%
    07:00 +16°C° 0 mm 1 m/S 763 mmHg 37%
    08:00 +19°C° 0 mm 1 m/S 763 mmHg 36%
    09:00 +21°C° 0 mm 1 m/S 763 mmHg 35%
    10:00 +23°C° 0 mm 1 m/S 763 mmHg 34%
    11:00 +24°C° 0 mm 2 m/S 763 mmHg 33%
    12:00 +24°C° 0 mm 2 m/S 762 mmHg 33%
    13:00 +25°C° 0 mm 2 m/S 762 mmHg 32%
    14:00 +25°C° 0 mm 3 m/S 762 mmHg 32%
    15:00 +25°C° 0 mm 3 m/S 762 mmHg 33%
    16:00 +24°C° 0 mm 3 m/S 762 mmHg 34%
    17:00 +22°C° 0 mm 3 m/S 762 mmHg 37%
    18:00 +21°C° 0 mm 4 m/S 762 mmHg 41%
    19:00 +19°C° 0 mm 4 m/S 762 mmHg 44%
    20:00 +17°C° 0 mm 3 m/S 763 mmHg 51%
    21:00 +16°C° 0 mm 3 m/S 763 mmHg 57%
    22:00 +14°C° 0 mm 2 m/S 763 mmHg 63%
    23:00 +13°C° 0 mm 2 m/S 764 mmHg 67%

    25 Mai, Freitag

    Zeit Temperatur Niederschläge Wind Luftdruck Luftfeuchtigkeit
    00:00 +12°C° 0 mm 2 m/S 764 mmHg 70%
    01:00 +12°C° 0 mm 2 m/S 764 mmHg 73%
    02:00 +11°C° 0 mm 1 m/S 764 mmHg 74%
    03:00 +11°C° 0 mm 1 m/S 765 mmHg 75%
    04:00 +11°C° 0 mm 1 m/S 765 mmHg 76%
    05:00 +12°C° 0 mm 1 m/S 765 mmHg 66%
    06:00 +14°C° 0 mm 2 m/S 765 mmHg 56%
    07:00 +15°C° 0 mm 2 m/S 765 mmHg 46%
    08:00 +16°C° 0 mm 2 m/S 765 mmHg 43%
    09:00 +17°C° 0 mm 2 m/S 765 mmHg 39%
    10:00 +18°C° 0 mm 3 m/S 765 mmHg 35%
    11:00 +19°C° 0 mm 3 m/S 765 mmHg 36%
    12:00 +19°C° 0 mm 3 m/S 766 mmHg 36%
    13:00 +20°C° 0 mm 3 m/S 766 mmHg 37%
    14:00 +20°C° 0 mm 3 m/S 766 mmHg 38%
    15:00 +20°C° 0 mm 3 m/S 766 mmHg 39%
    16:00 +20°C° 0 mm 3 m/S 766 mmHg 39%
    17:00 +19°C° 0 mm 3 m/S 765 mmHg 43%
    18:00 +18°C° 0 mm 3 m/S 765 mmHg 46%
    19:00 +18°C° 0 mm 2 m/S 765 mmHg 49%
    20:00 +16°C° 0 mm 2 m/S 766 mmHg 57%
    21:00 +14°C° 0 mm 1 m/S 766 mmHg 65%
    22:00 +13°C° 0 mm 1 m/S 766 mmHg 74%
    23:00 +12°C° 0 mm 1 m/S 766 mmHg 77%

    26 Mai, Samstag

    Zeit Temperatur Niederschläge Wind Luftdruck Luftfeuchtigkeit
    00:00 +12°C° 0 mm 1 m/S 766 mmHg 79%
    01:00 +10°C° 0 mm 0 m/S 766 mmHg 82%
    02:00 +11°C° 0 mm 1 m/S 766 mmHg 83%
    03:00 +11°C° 0 mm 1 m/S 766 mmHg 83%
    04:00 +11°C° 0 mm 1 m/S 766 mmHg 84%
    05:00 +12°C° 0 mm 1 m/S 766 mmHg 77%
    06:00 +14°C° 0 mm 1 m/S 766 mmHg 71%
    07:00 +15°C° 0 mm 1 m/S 766 mmHg 65%
    08:00 +16°C° 0 mm 1 m/S 766 mmHg 59%
    09:00 +17°C° 0 mm 2 m/S 766 mmHg 54%
    10:00 +18°C° 0 mm 2 m/S 766 mmHg 48%
    11:00 +19°C° 0 mm 2 m/S 766 mmHg 45%
    12:00 +20°C° 0 mm 2 m/S 766 mmHg 42%
    13:00 +20°C° 0 mm 3 m/S 766 mmHg 39%
    14:00 +20°C° 0 mm 3 m/S 766 mmHg 38%
    15:00 +20°C° 0 mm 3 m/S 766 mmHg 37%
    16:00 +20°C° 0 mm 3 m/S 766 mmHg 36%
    17:00 +20°C° 0 mm 3 m/S 766 mmHg 37%
    18:00 +19°C° 0 mm 3 m/S 765 mmHg 37%
    19:00 +18°C° 0 mm 2 m/S 765 mmHg 37%
    20:00 +17°C° 0 mm 2 m/S 766 mmHg 42%
    21:00 +15°C° 0 mm 2 m/S 766 mmHg 47%
    22:00 +13°C° 0 mm 1 m/S 766 mmHg 51%
    23:00 +13°C° 0 mm 1 m/S 766 mmHg 51%

    27 Mai, Sonntag

    Zeit Temperatur Niederschläge Wind Luftdruck Luftfeuchtigkeit
    00:00 +13°C° 0 mm 1 m/S 766 mmHg 52%
    01:00 +12°C° 0 mm 1 m/S 765 mmHg 52%
    02:00 +13°C° 0 mm 1 m/S 765 mmHg 52%
    03:00 +13°C° 0 mm 1 m/S 765 mmHg 52%
    04:00 +13°C° 0 mm 1 m/S 765 mmHg 52%
    05:00 +15°C° 0 mm 1 m/S 765 mmHg 48%
    06:00 +18°C° 0 mm 1 m/S 765 mmHg 43%
    07:00 +18°C° 0 mm 0 m/S 765 mmHg 39%
    08:00 +21°C° 0 mm 1 m/S 765 mmHg 38%
    09:00 +23°C° 0 mm 1 m/S 765 mmHg 37%
    10:00 +24°C° 0 mm 2 m/S 765 mmHg 36%
    11:00 +24°C° 0 mm 2 m/S 765 mmHg 35%
    12:00 +25°C° 0 mm 2 m/S 765 mmHg 33%
    13:00 +25°C° 0 mm 3 m/S 764 mmHg 31%
    14:00 +25°C° 0 mm 3 m/S 764 mmHg 30%
    15:00 +25°C° 0 mm 3 m/S 764 mmHg 30%
    16:00 +25°C° 0 mm 3 m/S 764 mmHg 29%
    17:00 +24°C° 0 mm 3 m/S 764 mmHg 30%
    18:00 +22°C° 0 mm 3 m/S 764 mmHg 31%
    19:00 +21°C° 0 mm 2 m/S 764 mmHg 32%
    20:00 +19°C° 0 mm 2 m/S 764 mmHg 36%
    21:00 +19°C° 0 mm 1 m/S 764 mmHg 39%
    22:00 +16°C° 0 mm 1 m/S 764 mmHg 43%
    23:00 +15°C° 0 mm 1 m/S 764 mmHg 43%
    Mehr zeigen